FloripaSat 1
1 44885U 19093G   25203.81338283  .00004300  00000-0  36073-3 0  9998
2 44885  97.8186 291.5134 0012071  62.8288 297.4163 14.98848434303225
RS-44
1 44909U 19096E   25203.47523872  .00000025  00000-0  55158-4 0  9996
2 44909  82.5201 198.7783 0217108 194.9870 164.4731 12.79742189260178
UPMSat 2
1 46276U 20061E   25203.47749237  .00075445  00000-0  51916-3 0  9999
2 46276  97.2409 279.4701 0001689 148.3587 211.7780 15.74419453272200
SALSAT
1 46495U 20068K   25203.51949835  .00006240  00000-0  26641-3 0  9994
2 46495  97.8623 183.5523 0011692  22.6749 337.5001 15.23227200265063
CubeSX-Sirius-HSE
1 47951U 21022V   25157.62701764  .07883385  25648-5  89537-3 0  9993
2 47951  97.4004  72.1904 0010275 223.9924 136.0557 16.36879307233400
CubeSX-HSE
1 47952U 21022W   25157.69972699  .06655353  25454-5  93288-3 0  9992
2 47952  97.3980  72.5414 0010307 219.3637 140.6911 16.34906352233436
GRBAlpha
1 47959U 21022AD  25160.45426279  .07940347  25506-5  90589-3 0  9995
2 47959  97.3899  75.6235 0011032 227.2558 132.7812 16.36806138232695
TUBIN
1 48900U 21059X   25203.83302983  .00052365  00000-0  55688-3 0  9992
2 48900  97.6758  16.6903 0003610  84.1929 275.9740 15.63872026226793
LEDSAT
1 49069U 21073D   25203.76565718  .00077960  00000-0  75075-3 0  9994
2 49069  97.3870 287.2774 0007811 263.5646  96.4724 15.66255082218182
CUTE
1 49263U 21088D   25203.48233778  .00036713  00000-0  68127-3 0  9994
2 49263  97.4496 281.0246 0008588  88.5274 271.6960 15.48824780211069
TeikyoSat 4
1 49396U 21102B   25203.55717816  .00001553  00000-0  10534-3 0  9999
2 49396  97.4081 240.4322 0012169 354.1925   5.9160 15.07788834203026
Z-Sat
1 49399U 21102E   25203.82694128  .00003522  00000-0  19314-3 0  9995
2 49399  97.3779 244.0588 0016619 318.1867  41.8095 15.14703684203524
KOSEN 1
1 49402U 21102H   25203.84118916  .00005733  00000-0  26286-3 0  9990
2 49402  97.3682 247.8191 0013958 289.1531  70.8194 15.20753164203865
HO-113
1 50466U 21131B   25203.81635326  .00000470  00000-0  16039-3 0  9998
2 50466  98.5107 292.9588 0004368  23.7931 336.3459 14.40854567187678
Foresail-1
1 52766U 22057AL  25176.64799660  .13857605  27391-5  25307-3 0  9992
2 52766  97.5832 331.2310 0012137 233.7199 258.4922 16.46795272172486
SNUGLITE 2
1 52899U 22065F   25203.36533828  .00000914  00000-0  18633-3 0  9996
2 52899  98.1739 344.9358 0007157 349.2567  10.8481 14.63291261162741
UmKA 1 (RS40S)
1 57172U 23091G   25203.85294300  .00005289  00000-0  28029-3 0  9998
2 57172  97.5560 259.0139 0014444 178.5639 181.5637 15.15733090114035
CubeBel-2 (EU11S)
1 57175U 23091K   25203.83189312  .00008764  00000-0  40982-3 0  9998
2 57175  97.5560 260.4099 0012106 183.9362 176.1780 15.19950733114123
VERONIKA
1 58261U 23174F   25203.79067007  .00334261  00000-0  13047-2 0  9993
2 58261  97.4066 293.0069 0007642 235.4429 124.6121 15.86184464 95494
ENSO
1 58470U 23185J   25203.79928694  .00063592  00000-0  78009-3 0  9991
2 58470  97.3713 280.4324 0005273 266.9036  93.1617 15.60111751 91766
EIRSAT-1
1 58472U 23185L   25203.80074719  .00176057  00000-0  10415-2 0  9992
2 58472  97.3641 283.2482 0005559 248.5871 111.4803 15.77581970 91958
SONATE-2
1 59112U 24043Q   25203.61184759  .00014021  00000-0  39013-3 0  9991
2 59112  97.5177 335.7004 0009736 325.3911  34.6698 15.36900729 76941
MO-122
1 60209U 24125G   25203.55026347  .00015234  00000-0  41583-3 0  9994
2 60209  97.2756  54.7160 0017451 348.5064  11.5780 15.37361358 58553
GRBBeta
1 60237U 24128C   25203.58660440  .00003269  00000-0  25010-3 0  9991
2 60237  61.9920 289.5720 0054786  66.7096 293.9749 15.02932149 56666
Curium One
1 60242U 24128H   25203.61559906  .00005458  00000-0  37860-3 0  9993
2 60242  61.9819 287.1089 0054769  62.9686 297.6982 15.05621178 56711
ROBUSTA-3A
1 60243U 24128J   25203.56535762  .00005459  00000-0  38395-3 0  9997
2 60243  61.9892 288.2589 0053751  60.6637 299.9809 15.05143583 56690
CatSat
1 60246U 24125J   25203.57459126  .00009894  00000-0  32379-3 0  9990
2 60246  97.2561  53.4538 0040226 302.0632  57.6706 15.31089807 56563
HYPERVIEW-1G (RS66S)
1 61772U 24199AP  25203.86216386  .00020996  00000-0  58063-3 0  9991
2 61772  97.3482  72.6612 0014225  44.9307 315.3086 15.36942684 83604
AO-123
1 61781U 24199AY  25203.78474248  .00006191  00000-0  22277-3 0  9994
2 61781  97.3499  70.9839 0016966  49.5091 310.7625 15.28826391 83480
ZIMSAT 2
1 61783U 24199BA  25203.88239801  .00038245  00000-0  85439-3 0  9995
2 61783  97.3452  73.6579 0013405  42.4748 317.7535 15.43331741 86823
HADES-R (SO-124)
1 62690U 25009CK  25203.17583887  .00029995  00000-0  98288-3 0  9990
2 62690  97.4084 283.8860 0001340 282.2307  77.8784 15.31596305 28665
HYDRA-T
1 62692U 25009CM  25203.47996321  .00030465  00000-0  98763-3 0  9998
2 62692  97.4089 284.2426 0001284 266.5464  93.5631 15.31938320 28710
JINJUSat 1B
1 63210U 25052A   25203.42292233  .00008545  00000-0  38383-3 0  9995
2 63210  97.4372  97.0151 0005019 149.1987 210.9544 15.21390260 19760
NUSHSAT 1
1 63211U 25052B   25203.60756625  .00010490  00000-0  46608-3 0  9997
2 63211  97.4360  97.2101 0004871 152.8864 207.2627 15.21705325 19791
TEVEL2-4
1 63213U 25052D   25203.63001497  .00010290  00000-0  46170-3 0  9994
2 63213  97.4278  97.0417 0003548 161.3031 198.8336 15.21376658 19795
TEVEL2-5
1 63214U 25052E   25203.43389727  .00009424  00000-0  42355-3 0  9996
2 63214  97.4281  96.8460 0003526 161.5240 198.6125 15.21345772 19769
TEVEL2-6
1 63215U 25052F   25203.70027197  .00010305  00000-0  46325-3 0  9998
2 63215  97.4278  97.1030 0003586 162.4553 197.6807 15.21312337 19808
TEVEL2-1
1 63217U 25052H   25203.45449703  .00009601  00000-0  43485-3 0  9994
2 63217  97.4255  96.7787 0003169 177.1256 182.9998 15.21076361 19766
TEVEL2-2
1 63218U 25052J   25203.45475541  .00009538  00000-0  43198-3 0  9994
2 63218  97.4254  96.7799 0003197 178.8604 181.2639 15.21078950 19765
TEVEL2-3
1 63219U 25052K   25203.45505248  .00009676  00000-0  43828-3 0  9996
2 63219  97.4258  96.7792 0003193 178.0363 182.0885 15.21071646 19760
TEVEL2-8
1 63237U 25052AD  25203.68645435  .00009193  00000-0  43149-3 0  9994
2 63237  97.4318  96.8839 0006834 212.1721 147.9098 15.19842713 19789
TEVEL2-9
1 63238U 25052AE  25203.62477712  .00009074  00000-0  42685-3 0  9992
2 63238  97.4322  96.8167 0006909 212.6638 147.4170 15.19771728 19776
TEVEL2-7
1 63239U 25052AF  25203.69351807  .00009181  00000-0  43222-3 0  9993
2 63239  97.4319  96.8758 0006918 212.6498 147.4310 15.19741036 19789
HYDRA-W
1 63490U 25052BL  25203.61373694  .00023209  00000-0  92851-3 0  9991
2 63490  97.4266  97.3512 0010257 209.7015 150.3642 15.25040196 19817
HADES-ICM (SO-125)
1 63492U 25052BN  25203.24841757  .00018936  00000-0  77120-3 0  9995
2 63492  97.4274  96.9319 0010269 215.9800 144.0747 15.24483348 19750
